Temperature
23 23 22 22 20 20 22 23 23 24 24 24 23 23 22 21 21 21 21 21 21 20 20 20 20 20 20 20 20 20 20 20 20 20 20 20 20 20 20 20 20 19 19 19 19 19 19 19 19
24 23 23 22 20 20 22 23 24 24 24 24 23 23 21 20 20 20 20 20 20 20 20 20 20 20 20 20 20 20 20 20 20 20 20 20 20 20 20 20 20 19 19 19 19 19 19 19 19
24 23 23 20 21 22 24 24 24 24 25 24 23 22 21 20 20 20 20 20 20 20 20 20 20 20 20 20 20 20 20 20 20 20 20 20 20 20 20 20 20 19 19 19 19 19 19 19 19
24 24 23 21 23 23 24 24 24 24 25 24 23 21 21 20 21 21 20 20 20 20 20 20 20 20 20 20 20 20 20 20 20 20 20 20 20 20 20 20 19 19 19 19 19 18 18 18 19
25 24 21 21 23 23 24 24 25 24 24 23 22 21 20 20 21 21 21 20 20 20 20 20 20 20 20 20 20 20 20 20 20 20 20 20 20 20 19 19 19 19 19 19 18 18 18 18 18
25 22 21 22 22 23 24 25 25 24 23 23 22 20 20 20 21 21 21 21 20 20 20 20 20 20 20 20 19 19 19 19 19 19 19 19 19 19 19 19 19 19 19 18 18 18 18 18 18
24 21 22 22 22 23 24 25 25 23 23 23 23 20 20 20 21 21 21 21 20 20 20 20 20 20 20 20 19 19 19 19 19 19 19 19 19 19 19 19 19 19 19 18 18 18 18 18 18
25 21 22 22 22 23 24 25 25 24 24 23 23 21 20 21 20 20 20 20 20 20 20 20 20 20 20 20 19 19 19 19 19 19 19 19 19 19 19 19 19 19 19 18 18 18 18 18 18
25 20 21 22 23 23 23 24 25 25 24 23 23 23 23 21 20 20 20 20 20 20 20 20 20 20 20 20 20 19 19 19 19 19 19 19 19 19 19 19 19 19 18 18 18 18 18 18 18
24 21 23 22 22 22 23 23 23 24 23 23 23 23 23 21 20 20 20 20 20 20 20 20 20 20 20 20 20 19 19 19 19 19 19 19 19 19 19 19 19 19 18 18 18 18 18 18 18
24 22 23 23 23 23 23 22 21 21 20 20 21 21 21 20 20 20 20 20 20 20 20 20 20 20 20 20 20 19 19 19 19 19 19 19 19 19 19 19 19 19 19 18 18 18 18 18 18
23 23 23 23 23 23 22 21 19 18 18 19 20 20 20 19 19 19 19 19 20 20 20 20 20 20 20 20 20 19 19 19 19 19 19 19 19 18 18 19 19 19 19 18 18 18 18 18 18
24 23 23 23 23 21 20 19 18 17 17 18 19 19 18 18 17 18 18 18 19 19 19 19 20 20 20 20 19 19 19 19 19 19 19 19 19 18 18 18 19 19 19 19 18 18 18 18 18
24 23 22 22 22 20 18 17 17 16 16 16 16 16 16 16 16 17 17 17 18 18 19 19 19 19 19 19 19 19 19 19 19 19 19 19 19 18 18 18 19 19 19 18 18 18 18 18 18
24 22 21 20 20 21 19 16 16 15 15 15 15 15 15 15 16 16 16 16 17 17 17 18 19 19 19 19 19 19 19 19 19 18 18 18 18 18 18 18 18 18 18 18 18 18 18 18 18
22 20 19 19 19 19 18 15 15 14 14 14 14 14 14 14 15 15 15 16 16 17 17 17 18 19 19 19 19 19 19 19 19 18 18 18 18 18 18 18 18 18 18 18 18 18 18 18 18
19 20 19 18 17 17 16 14 14 14 14 13 13 13 14 14 15 15 15 15 16 16 17 17 17 18 18 19 19 19 19 19 19 19 18 18 18 18 18 18 18 18 18 18 18 18 18 18 18
20 19 19 18 16 16 14 14 14 13 13 13 12 12 13 13 14 14 15 15 15 16 16 16 17 17 18 18 19 19 19 18 19 19 19 18 18 18 18 18 18 18 18 18 18 18 18 18 18
19 19 18 17 16 15 14 13 13 13 13 13 12 12 12 12 13 13 14 14 15 15 16 16 16 17 17 18 18 18 19 19 19 19 19 18 18 18 18 18 18 18 18 18 18 18 18 18 18
18 17 17 16 16 15 13 13 13 13 13 12 12 11 11 12 13 13 14 14 14 15 15 16 16 16 16 17 17 18 18 18 19 19 18 18 18 18 18 18 18 18 18 18 18 17 17 17 17
17 17 17 16 15 14 13 13 12 12 12 12 12 11 11 11 11 12 13 13 13 14 14 15 15 15 16 16 16 17 17 18 18 18 19 18 18 18 18 18 18 18 18 18 17 17 17 17 17
16 16 16 16 14 13 13 13 12 11 11 12 12 11 11 11 11 12 12 12 13 13 14 14 14 14 15 15 16 16 16 16 17 18 18 18 18 18 18 18 18 18 18 18 18 17 17 17 17
15 15 15 15 13 12 11 12 11 10 11 11 11 11 11 11 11 11 11 12 12 13 13 13 13 14 14 14 15 15 15 16 16 17 17 17 18 18 18 17 17 17 17 17 17 17 17 17 17
14 14 13 11 11 11 11 11 11 10 10 11 11 11 11 11 11 11 11 11 12 12 12 13 13 13 13 14 14 15 15 15 15 16 17 17 17 17 17 17 17 17 17 17 17 16 16 16 16
12 12 13 13 11 11 12 11 11 11 11 11 11 11 11 11 11 11 11 11 12 12 12 12 13 13 13 13 14 14 14 15 15 15 16 16 16 16 16 16 17 17 17 16 16 16 16 16 15
13 12 12 13 12 11 11 11 11 12 12 11 11 11 11 11 11 11 11 11 11 12 12 12 12 12 13 13 13 13 14 14 14 15 15 15 15 15 16 16 16 16 16 16 16 15 15 15 15
13 11 11 10 11 11 11 11 12 12 11 11 11 11 11 11 11 11 11 11 11 11 12 12 12 12 12 13 13 13 13 13 14 14 14 14 14 15 15 15 15 15 15 15 15 15 15 14 14
12 11 10 10 11 11 11 11 10 10 10 10 10 10 11 12 12 12 11 11 11 11 11 12 12 12 12 12 13 13 13 13 13 14 14 14 14 14 14 14 14 14 14 14 14 14 14 14 14
12 11 9 9 9 10 10 10 11 10 10 10 10 11 11 12 12 12 12 12 12 11 11 11 11 12 12 12 12 13 13 13 13 13 13 13 13 13 13 13 14 14 14 14 14 14 14 14 14
13 11 10 10 9 9 9 10 11 10 11 11 11 12 12 12 12 12 12 12 12 11 11 11 11 12 12 12 12 12 13 13 13 13 13 13 13 13 13 13 13 13 13 13 13 13 13 14 14
Wind_Speed
1 6 4 4 5 6 4 4 2 2 4 3 3 6 6 4 2 2 2 9 11 11 12 14 14 13 12 12 11 11 11 11 12 12 12 12 12 11 11 10 10 10 9 9 8 8 9 9 9
3 4 3 5 6 5 3 4 1 2 5 4 5 5 6 4 3 5 5 7 12 12 13 13 15 14 13 12 11 11 10 10 10 10 11 11 10 10 10 9 9 9 8 8 8 8 8 8 8
4 3 4 5 5 4 1 2 1 3 4 2 4 5 4 3 5 5 5 10 11 11 12 14 15 14 13 12 11 11 10 10 10 10 9 9 9 9 9 9 8 8 7 7 7 7 7 6 6
4 4 5 6 4 1 3 2 4 5 3 5 4 5 4 3 6 6 10 12 12 9 12 14 16 14 13 12 12 11 10 10 10 9 9 8 8 8 8 7 7 7 7 6 5 5 5 5 5
4 4 6 5 5 4 2 2 3 4 2 3 4 5 3 4 8 12 13 12 11 9 11 13 16 15 14 13 12 11 11 10 10 9 8 8 7 7 7 7 6 6 5 5 4 4 4 4 5
4 5 6 3 6 6 4 3 2 4 4 4 4 4 2 3 9 11 11 10 10 10 10 13 16 15 14 13 13 12 12 11 10 9 8 7 7 6 6 5 5 5 4 4 4 3 3 4 4
4 5 4 2 4 6 6 5 3 4 3 3 5 5 2 3 7 11 9 8 7 8 8 10 13 15 15 14 13 13 12 12 10 9 8 7 7 6 5 4 4 3 3 2 3 3 4 4 4
4 5 4 2 3 4 7 5 2 3 2 3 4 6 5 6 7 8 7 7 6 6 6 7 10 12 12 13 14 14 13 13 11 10 9 8 7 6 5 4 3 2 2 1 2 3 4 4 4
4 5 2 1 1 2 5 5 5 3 5 3 1 3 4 11 11 9 6 5 6 7 5 5 6 8 10 11 13 14 14 14 12 11 10 8 6 5 5 5 4 3 2 1 1 2 3 5 6
5 4 2 3 3 2 3 5 6 5 6 5 5 5 9 12 10 9 8 9 9 9 8 6 6 6 8 10 10 11 11 12 12 10 10 8 7 6 5 5 6 5 4 2 1 2 3 5 5
4 4 2 1 2 1 3 7 11 8 7 8 5 4 9 8 4 3 4 6 8 7 8 9 7 7 7 6 7 8 8 9 10 11 10 9 7 6 5 4 5 4 3 1 2 3 3 2 2
3 1 1 2 2 4 5 5 11 17 10 10 9 12 12 10 7 6 4 3 4 4 6 7 8 6 7 7 6 7 6 7 8 11 12 9 6 5 5 4 5 4 3 2 2 2 2 2 2
3 2 4 6 8 11 16 13 9 16 14 16 19 19 16 14 11 10 10 9 7 5 4 5 6 8 7 6 5 6 7 8 9 10 12 12 6 4 5 5 6 6 5 4 3 3 3 3 3
2 6 7 9 8 9 16 13 10 13 14 19 20 18 16 16 15 14 14 12 10 9 7 5 4 7 7 8 7 6 8 9 10 10 12 14 11 7 5 4 5 6 7 6 5 3 2 2 2
3 5 8 11 7 3 9 14 13 12 14 19 18 16 16 15 15 15 13 12 12 11 9 8 5 3 6 8 9 7 8 9 8 10 13 14 13 10 7 4 4 6 8 6 4 3 2 2 1
6 6 6 8 10 6 10 8 12 11 14 17 15 14 14 13 13 12 13 12 12 12 11 10 8 5 4 5 7 6 7 8 8 11 12 15 15 13 8 5 6 7 7 5 3 3 2 2 2
8 5 4 6 11 7 9 8 10 11 14 15 14 13 12 12 14 13 12 12 12 11 12 11 10 9 7 5 5 6 5 6 8 10 11 13 14 15 10 6 6 7 5 4 4 3 3 3 3
2 3 4 5 7 11 12 10 10 12 14 13 13 12 13 13 13 12 12 11 11 10 10 10 10 9 8 5 3 4 5 6 6 7 9 11 12 13 11 6 6 6 4 5 4 4 3 3 4
3 4 4 4 4 8 11 11 10 11 14 15 14 13 13 13 11 11 11 11 10 10 10 10 10 10 8 5 3 3 4 5 6 6 8 11 11 11 9 6 6 6 6 6 6 4 4 2 3
6 5 3 3 5 6 9 9 7 9 11 11 12 13 14 15 16 15 14 12 11 10 10 10 10 10 8 6 5 4 4 5 5 6 7 10 11 11 9 8 7 7 6 6 6 5 4 3 4
5 4 0 1 4 5 5 3 6 5 6 11 12 11 12 14 15 15 15 13 12 11 10 10 10 10 8 8 6 5 4 3 3 5 6 7 10 11 10 9 8 8 7 7 7 7 7 4 3
2 2 3 3 4 2 2 1 5 7 8 14 15 14 15 15 14 14 14 14 13 12 10 9 9 9 8 7 6 6 4 5 5 4 5 6 7 8 10 8 9 9 7 7 8 7 5 5 4
3 4 1 2 5 4 7 3 4 7 9 14 14 14 14 14 14 14 13 13 12 11 10 9 9 9 8 7 7 6 5 5 4 3 4 5 5 5 7 8 8 9 8 8 8 7 6 5 5
3 3 6 6 5 5 5 3 5 6 10 14 14 14 14 14 14 14 13 12 11 10 9 9 9 8 8 7 7 7 7 6 5 4 3 3 3 3 5 6 7 8 7 8 7 7 7 5 5
9 6 5 6 6 2 3 3 2 5 8 10 13 14 14 13 14 14 15 14 13 12 11 10 9 9 9 8 8 7 7 6 4 3 2 2 1 2 4 6 6 6 6 7 7 7 7 7 6
5 5 5 2 1 2 4 3 3 4 7 9 10 11 12 13 13 14 15 14 12 12 11 10 10 9 9 8 8 7 7 5 4 3 2 1 0 0 2 4 5 5 6 7 6 5 6 6 6
4 4 3 6 3 2 3 3 3 5 10 11 13 14 14 14 14 14 15 14 12 12 11 10 9 9 9 8 8 8 8 7 6 6 4 3 3 2 3 3 3 4 5 6 6 5 4 4 4
5 4 5 4 3 1 3 3 5 10 12 12 13 14 15 15 14 14 13 13 12 11 10 9 9 9 8 8 8 7 8 7 6 6 7 6 5 5 5 5 4 4 4 4 5 4 4 4 4
6 5 5 5 4 3 1 3 3 6 8 10 12 12 13 14 13 12 12 11 10 10 10 10 10 9 9 9 8 8 8 8 7 7 7 6 6 6 6 5 5 5 4 4 4 4 4 4 3
4 3 3 4 2 3 2 4 5 6 7 8 10 12 12 12 11 10 10 10 10 10 10 10 10 10 9 9 9 9 9 9 8 8 7 6 6 6 5 5 5 5 4 3 3 3 3 3 3
Wind_Direction
210 130 109 68 54 51 38 339 294 34 52 33 72 91 98 106 163 193 116 138 136 144 155 156 153 151 148 144 139 133 128 125 124 123 122 121 120 120 121 121 121 121 122 121 120 119 120 118 114
145 131 78 62 77 66 340 306 297 71 126 133 73 76 75 71 72 107 131 144 142 146 150 154 156 155 153 151 147 141 136 133 128 126 124 123 121 121 121 122 121 120 120 120 121 123 124 121 117
148 114 82 68 83 132 184 276 179 83 105 93 72 61 80 107 130 145 156 146 143 146 149 158 159 159 159 158 155 150 145 141 137 134 131 128 125 123 122 122 121 120 118 118 118 121 124 121 115
114 57 54 64 50 250 248 249 154 125 76 57 88 67 61 94 148 149 141 146 146 144 151 163 162 163 164 164 162 158 155 151 147 143 139 135 131 126 122 119 119 118 116 115 114 117 121 119 114
68 76 55 41 350 322 302 275 165 127 95 65 87 86 45 19 115 133 143 151 150 148 155 167 167 168 169 170 170 168 165 160 158 154 150 146 140 133 127 121 117 115 112 108 103 108 115 113 109
60 66 69 20 333 333 351 354 104 104 102 95 96 94 41 113 128 144 150 153 154 155 159 171 173 175 176 177 178 177 174 170 168 165 163 160 155 147 139 132 125 118 108 96 88 86 96 99 94
91 81 92 38 340 356 359 354 100 114 122 146 124 103 90 166 157 148 148 146 151 159 163 173 178 181 183 184 185 184 180 178 178 177 179 175 170 165 160 153 144 133 115 90 77 73 74 76 73
108 94 78 41 16 342 332 352 64 95 110 110 117 140 183 192 156 137 133 138 154 167 175 180 183 184 187 190 191 190 187 186 186 188 191 190 188 187 186 182 178 170 153 100 67 59 55 55 54
78 72 84 214 164 302 335 15 20 52 89 79 111 174 187 146 139 131 131 146 172 190 197 192 191 191 191 193 198 196 194 193 194 197 200 198 197 198 202 203 209 216 218 227 27 36 38 44 43
70 104 213 210 196 233 355 29 10 35 37 19 24 49 112 135 147 156 169 180 192 201 204 202 201 200 196 201 204 201 197 196 197 198 200 193 192 200 210 220 227 233 240 258 303 351 22 40 37
87 150 221 249 218 300 34 50 35 36 19 348 341 66 105 115 123 167 203 210 212 213 210 207 205 205 202 208 203 199 198 194 195 195 195 192 194 205 215 221 243 257 264 281 339 2 11 17 17
91 127 92 2 41 35 40 54 51 40 14 4 53 70 69 66 50 29 360 317 293 262 233 222 207 207 210 211 211 201 200 198 198 198 195 190 191 203 211 216 225 234 239 237 251 271 294 292 267
60 51 42 28 61 70 66 57 66 34 24 43 57 57 52 48 40 33 30 21 10 348 309 264 220 213 211 211 217 210 208 209 206 201 201 198 197 201 210 220 222 223 223 224 234 248 270 274 264
47 77 51 27 53 74 74 51 45 21 27 48 51 49 45 40 33 29 23 17 8 356 342 321 255 224 212 213 218 217 214 212 206 205 207 206 207 208 207 214 217 219 217 219 223 237 257 271 265
66 84 46 25 22 74 83 48 25 14 38 47 44 43 39 35 31 26 17 12 5 357 349 338 311 268 229 222 223 224 217 211 210 213 211 209 210 212 211 211 218 220 213 207 211 228 244 252 229
45 58 45 13 14 30 76 62 19 19 43 45 38 34 30 25 24 19 13 6 3 360 356 350 341 332 288 250 236 231 220 211 215 216 213 212 212 211 207 212 224 221 199 187 189 198 209 220 191
34 56 41 14 16 41 75 77 31 30 44 41 31 24 20 16 13 9 7 1 357 356 354 350 347 346 328 290 257 239 233 222 221 216 213 213 213 211 207 212 221 215 191 185 196 181 177 187 184
9 63 61 47 32 66 84 78 45 35 42 37 26 19 14 10 2 357 356 354 350 349 350 348 346 346 340 322 281 246 236 235 233 221 213 208 210 212 209 212 216 203 194 192 186 176 168 175 168
94 95 81 60 80 77 87 78 49 35 34 28 19 11 6 358 351 351 351 347 344 345 347 343 345 343 344 338 318 278 249 238 236 229 216 207 204 205 203 211 204 192 197 197 182 163 163 158 138
72 79 53 52 82 99 105 82 49 40 35 23 13 1 355 350 348 348 348 346 344 343 343 340 339 335 337 328 309 281 270 253 237 230 219 212 205 203 207 204 200 192 193 187 175 161 155 160 155
59 95 321 219 77 88 124 74 21 7 17 11 9 357 351 349 341 339 340 339 338 338 338 336 331 327 328 327 316 304 283 272 249 230 222 219 212 203 200 198 194 188 186 190 185 179 166 170 173
346 331 279 219 130 72 358 182 7 334 351 1 358 353 347 344 339 337 336 336 334 331 330 328 325 323 325 328 326 316 299 279 267 257 238 226 215 203 197 190 183 183 184 185 188 186 180 161 170
300 328 5 113 123 76 23 65 341 338 351 347 345 345 343 340 338 337 335 330 328 326 328 327 325 323 325 328 326 318 306 289 284 273 248 237 218 201 191 185 181 182 183 181 180 177 183 178 173
345 58 60 54 72 56 344 38 358 349 334 331 335 338 339 339 339 338 336 331 329 328 330 332 331 328 331 333 335 332 324 312 300 284 258 237 210 194 187 184 185 184 177 178 180 178 182 189 186
36 64 40 23 33 8 336 64 345 318 326 327 329 332 334 338 339 340 341 340 339 336 335 336 338 337 338 342 345 342 338 330 312 298 283 260 215 194 188 187 185 180 174 175 174 179 183 185 186
33 83 118 140 167 306 8 18 289 303 320 329 335 334 337 342 341 341 341 340 339 338 340 345 346 343 345 351 351 353 353 352 352 356 356 358 7 166 167 175 176 177 176 175 173 178 181 178 185
56 59 127 121 110 61 355 337 317 336 345 346 345 344 342 342 341 341 341 342 343 344 346 347 349 354 355 357 358 3 5 10 16 19 25 33 44 69 89 108 131 152 162 158 157 161 167 176 190
88 108 76 86 109 42 349 348 321 325 334 338 338 337 336 337 337 338 338 339 345 347 348 354 1 2 0 4 6 11 12 17 23 32 36 39 43 55 70 76 89 107 117 137 148 146 159 163 177
20 48 75 85 104 125 8 307 262 286 307 320 322 325 327 331 332 333 337 341 349 357 1 5 7 8 10 10 10 16 19 22 29 35 35 40 45 52 64 69 75 86 98 109 129 143 158 164 174
94 77 115 119 92 108 141 276 280 282 296 306 312 318 322 325 326 331 339 348 356 0 2 7 10 11 11 11 18 22 24 28 32 34 34 39 44 47 61 70 70 72 79 88 108 126 139 141 161
Height
1509 1508 1508 1510 1513 1524 1527 1520 1515 1513 1513 1514 1513 1514 1516 1519 1523 1526 1522 1523 1527 1530 1533 1536 1538 1541 1542 1544 1545 1547 1548 1549 1550 1551 1552 1553 1554 1555 1555 1556 1557 1557 1558 1559 1559 1560 1561 1561 1562
1509 1508 1510 1511 1522 1538 1531 1519 1516 1513 1514 1515 1515 1516 1517 1519 1520 1520 1521 1524 1528 1531 1534 1537 1539 1541 1543 1545 1546 1547 1548 1550 1551 1552 1553 1554 1554 1555 1556 1556 1557 1558 1558 1559 1559 1560 1561 1562 1562
1509 1509 1511 1514 1526 1534 1527 1517 1515 1514 1515 1515 1516 1517 1519 1520 1520 1521 1523 1526 1529 1532 1535 1537 1540 1542 1544 1545 1547 1548 1549 1550 1551 1552 1553 1554 1555 1555 1556 1556 1557 1558 1558 1559 1560 1560 1561 1562 1563
1510 1511 1512 1520 1526 1524 1520 1516 1515 1515 1516 1516 1517 1519 1521 1522 1522 1523 1525 1527 1530 1533 1536 1538 1541 1543 1544 1546 1547 1549 1550 1550 1551 1552 1553 1554 1555 1556 1556 1557 1557 1558 1558 1559 1559 1560 1561 1562 1563
1510 1511 1519 1528 1526 1520 1516 1515 1515 1515 1516 1517 1518 1521 1522 1524 1524 1525 1527 1528 1531 1533 1536 1539 1541 1543 1545 1546 1548 1549 1550 1551 1552 1553 1554 1555 1555 1556 1557 1557 1557 1558 1558 1559 1559 1560 1561 1562 1563
1511 1513 1530 1536 1529 1520 1517 1516 1516 1516 1517 1518 1519 1522 1524 1525 1526 1527 1528 1530 1532 1535 1537 1539 1541 1543 1545 1546 1548 1549 1550 1551 1552 1553 1554 1555 1556 1556 1557 1557 1557 1558 1558 1559 1560 1560 1561 1562 1563
1513 1518 1530 1532 1530 1524 1519 1517 1517 1518 1519 1520 1521 1522 1524 1525 1527 1528 1530 1532 1534 1536 1538 1540 1541 1543 1544 1546 1547 1548 1550 1551 1552 1553 1554 1555 1555 1556 1556 1557 1557 1558 1559 1559 1560 1560 1561 1562 1563
1513 1519 1529 1531 1530 1527 1520 1518 1519 1520 1521 1522 1522 1523 1524 1526 1528 1530 1531 1533 1535 1537 1538 1540 1541 1543 1544 1546 1547 1548 1549 1550 1551 1552 1553 1554 1555 1555 1556 1556 1557 1558 1558 1559 1560 1560 1561 1562 1563
1514 1525 1533 1530 1529 1526 1522 1520 1521 1521 1522 1523 1523 1524 1524 1526 1528 1530 1532 1534 1535 1537 1538 1540 1541 1543 1544 1545 1546 1547 1548 1550 1551 1552 1553 1553 1554 1555 1555 1556 1556 1557 1558 1559 1560 1560 1561 1562 1563
1516 1529 1527 1524 1524 1523 1523 1524 1524 1524 1525 1526 1525 1525 1526 1528 1529 1531 1533 1534 1535 1537 1538 1540 1541 1542 1544 1545 1546 1546 1547 1549 1550 1551 1551 1552 1553 1554 1554 1555 1556 1557 1558 1559 1560 1561 1561 1562 1563
1518 1524 1522 1522 1523 1524 1525 1528 1530 1529 1532 1532 1530 1529 1529 1531 1533 1535 1536 1537 1538 1539 1539 1540 1541 1542 1543 1544 1545 1545 1546 1547 1548 1549 1550 1551 1552 1553 1553 1554 1555 1556 1557 1558 1559 1561 1562 1563 1564
1520 1522 1522 1524 1524 1526 1528 1531 1535 1538 1541 1536 1532 1532 1533 1535 1537 1537 1538 1538 1539 1540 1540 1541 1541 1542 1542 1543 1544 1544 1545 1546 1546 1547 1548 1549 1551 1552 1553 1553 1554 1555 1556 1557 1559 1560 1562 1563 1564
1522 1523 1524 1526 1527 1530 1532 1536 1540 1544 1542 1537 1534 1534 1536 1538 1538 1539 1538 1538 1538 1538 1539 1540 1540 1541 1541 1542 1542 1542 1543 1544 1545 1546 1547 1548 1549 1550 1551 1552 1553 1554 1555 1557 1558 1560 1561 1563 1564
1524 1525 1527 1528 1529 1533 1536 1542 1544 1549 1546 1540 1538 1539 1540 1540 1540 1538 1538 1537 1537 1536 1536 1536 1537 1538 1539 1539 1540 1541 1541 1542 1543 1543 1544 1546 1547 1549 1550 1551 1552 1553 1554 1556 1557 1559 1561 1562 1563
1524 1527 1530 1532 1532 1535 1536 1548 1554 1554 1550 1545 1544 1544 1544 1543 1541 1540 1539 1537 1536 1535 1534 1533 1533 1534 1535 1536 1537 1538 1539 1539 1540 1541 1542 1543 1545 1546 1548 1549 1550 1552 1553 1554 1556 1558 1560 1561 1562
1526 1534 1542 1540 1537 1538 1542 1561 1561 1558 1553 1550 1549 1548 1547 1546 1544 1542 1540 1538 1536 1534 1532 1531 1530 1530 1530 1532 1533 1534 1535 1536 1536 1537 1538 1540 1541 1543 1545 1547 1548 1550 1551 1553 1555 1556 1558 1560 1561
1540 1545 1548 1546 1544 1542 1549 1563 1564 1561 1556 1555 1553 1551 1549 1547 1545 1543 1541 1538 1536 1533 1531 1529 1528 1527 1526 1527 1528 1529 1530 1531 1532 1533 1534 1536 1537 1539 1541 1543 1546 1548 1549 1551 1552 1554 1556 1558 1559
1548 1548 1550 1552 1552 1551 1557 1565 1565 1563 1560 1558 1556 1554 1551 1548 1547 1544 1541 1538 1535 1533 1530 1528 1526 1524 1523 1522 1522 1523 1524 1525 1527 1528 1530 1531 1533 1535 1537 1539 1541 1544 1546 1548 1549 1551 1553 1555 1557
1545 1549 1553 1554 1554 1558 1564 1567 1567 1565 1562 1560 1558 1556 1552 1550 1547 1544 1541 1538 1535 1531 1528 1526 1524 1521 1520 1518 1518 1518 1518 1520 1521 1523 1525 1527 1528 1530 1532 1534 1537 1539 1541 1544 1546 1548 1550 1552 1554
1549 1554 1556 1557 1556 1561 1567 1569 1569 1567 1566 1565 1562 1558 1554 1549 1545 1542 1538 1536 1533 1529 1526 1524 1521 1519 1517 1515 1514 1513 1513 1513 1515 1517 1518 1520 1522 1524 1527 1529 1532 1534 1537 1539 1542 1544 1546 1549 1551
1554 1557 1557 1558 1560 1563 1567 1572 1571 1569 1567 1565 1562 1559 1555 1551 1546 1541 1537 1534 1531 1527 1524 1521 1519 1517 1514 1512 1510 1509 1508 1508 1509 1510 1512 1514 1516 1518 1521 1523 1526 1529 1532 1534 1537 1539 1542 1544 1547
1559 1554 1555 1556 1564 1573 1570 1578 1576 1571 1568 1564 1561 1558 1554 1550 1545 1541 1537 1532 1529 1525 1522 1519 1517 1514 1511 1509 1507 1505 1504 1503 1503 1505 1506 1508 1511 1513 1515 1518 1520 1523 1526 1528 1531 1534 1537 1540 1542
1556 1554 1555 1557 1565 1575 1577 1579 1581 1573 1571 1566 1562 1559 1555 1550 1545 1540 1536 1531 1527 1523 1520 1517 1514 1512 1509 1506 1504 1503 1501 1499 1499 1500 1501 1502 1505 1507 1510 1513 1515 1518 1520 1522 1525 1528 1532 1535 1538
1555 1556 1558 1565 1571 1584 1584 1583 1584 1580 1576 1569 1564 1559 1555 1550 1545 1540 1535 1530 1525 1521 1518 1515 1512 1510 1507 1504 1502 1500 1498 1496 1495 1495 1496 1498 1500 1502 1504 1507 1510 1512 1514 1517 1520 1523 1526 1529 1532
1560 1566 1576 1578 1587 1588 1582 1583 1585 1578 1575 1571 1566 1560 1555 1550 1545 1539 1534 1528 1524 1520 1516 1513 1510 1508 1505 1502 1500 1498 1496 1494 1493 1493 1493 1494 1496 1497 1499 1502 1504 1507 1509 1512 1515 1518 1521 1524 1527
1566 1571 1582 1585 1589 1590 1584 1586 1584 1577 1574 1571 1566 1561 1556 1551 1546 1540 1534 1529 1524 1520 1516 1512 1509 1507 1504 1501 1499 1497 1495 1493 1492 1491 1492 1492 1493 1495 1496 1498 1500 1502 1505 1507 1510 1512 1516 1518 1521
1567 1574 1574 1584 1586 1591 1589 1584 1579 1575 1573 1569 1566 1561 1556 1551 1546 1541 1535 1530 1525 1521 1517 1513 1510 1507 1504 1502 1499 1497 1495 1493 1492 1491 1491 1491 1492 1493 1494 1495 1497 1499 1501 1504 1506 1509 1511 1514 1517
1569 1573 1580 1585 1590 1594 1590 1589 1589 1579 1575 1570 1566 1562 1557 1552 1548 1542 1537 1532 1527 1523 1518 1515 1511 1509 1506 1503 1501 1499 1497 1495 1494 1493 1492 1492 1492 1492 1493 1493 1495 1496 1498 1500 1503 1505 1508 1510 1513
1573 1576 1582 1589 1590 1595 1597 1595 1582 1580 1576 1572 1568 1563 1559 1554 1549 1545 1540 1535 1530 1525 1521 1517 1514 1511 1508 1505 1503 1501 1499 1497 1496 1495 1494 1493 1493 1493 1493 1494 1495 1495 1497 1499 1501 1503 1506 1508 1511
1572 1577 1581 1588 1594 1595 1597 1596 1578 1577 1574 1571 1568 1564 1560 1556 1552 1547 1543 1538 1533 1528 1524 1520 1517 1513 1511 1509 1506 1504 1502 1500 1499 1497 1496 1496 1495 1495 1495 1496 1496 1497 1498 1499 1501 1503 1504 1507 1510